Butte, MT

5:45 PM MDT on September 22, 2017 (GMT -0600)
Mooney

Weather History for KBTM - January, 2014

Change the Weather History Date:

Sunday, January 19, 2014

  Actual Average Record
Temperature  
Mean Temperature 30 °F 20 °F  
Max Temperature 47 °F 32 °F 56 °F (2005)
Min Temperature 12 °F 8 °F -44 °F (1963)
Degree Days  
Heating Degree Days 35 45  
Month to date heating degree days 738 869  
Since 1 July heating degree days 4456 4833  
Cooling Degree Days 0 0  
Month to date cooling degree days 0 0  
Year to date cooling degree days 0 0  
Moisture  
Dew Point 15 °F    
Average Humidity 57    
Maximum Humidity 88    
Minimum Humidity 25    
Precipitation  
Precipitation 0.00 in 0.01 in 0.30 in (1906)
Month to date precipitation 0.10 0.30  
Year to date precipitation 0.10 0.30  
Sea Level Pressure  
Sea Level Pressure 30.18 in    
Wind  
Wind Speed 4 mph (NNW)    
Max Wind Speed 12 mph    
Max Gust Speed 14 mph    
Visibility 10 miles    
Events      
T = Trace of Precipitation, MM = Missing Value Source: NWS Daily Summary

Daily Weather History Graph

Daily Weather History Graph

Search for Another Location

Airport or City:

Trip Planner

Search our weather history database for the weather conditions in past years. The results will help you decide how hot, cold, wet, or windy it might be!

Date:

Astronomy

Jan. 19, 2014 Rise Set
Actual Time 8:04 AM MST 5:17 PM MST
Civil Twilight 7:31 AM MST 5:50 PM MST
Nautical Twilight 6:55 AM MST 6:26 PM MST
Astronomical Twilight 6:19 AM MST 7:02 PM MST
Moon 9:13 PM MST (1/19) 9:23 AM MST (1/19)
Length of Visible Light 10h 18m
Length of Day
9h 12m
Waning Gibbous, 89% of the Moon is Illuminated
Jan 19
Waning Gibbous
Jan 23
Last Quarter
Jan 30
New
Feb 6
First Quarter
Feb 14
Full

Hourly Weather History & Observations

Time (MST) Temp. Windchill Dew Point Humidity Pressure Visibility Wind Dir Wind Speed Gust Speed Precip Events Conditions
12:53 AM 18.0 °F - 14.0 °F 84% 30.23 in 10.0 mi Calm Calm - N/A   Clear
1:53 AM 18.0 °F 11.1 °F 14.0 °F 84% 30.21 in 10.0 mi SE 4.6 mph - N/A   Clear
2:53 AM 17.1 °F 11.7 °F 12.9 °F 84% 30.22 in 10.0 mi South 3.5 mph - N/A   Clear
3:53 AM 14.0 °F - 10.9 °F 88% 30.22 in 10.0 mi Calm Calm - N/A   Clear
4:53 AM 14.0 °F 8.2 °F 10.0 °F 84% 30.25 in 10.0 mi SE 3.5 mph - N/A   Clear
5:53 AM 14.0 °F 3.9 °F 10.0 °F 84% 30.26 in 10.0 mi ESE 6.9 mph - N/A   Clear
6:53 AM 15.1 °F - 10.9 °F 84% 30.25 in 10.0 mi Calm Calm - N/A   Clear
7:53 AM 19.0 °F 11.1 °F 12.9 °F 77% 30.21 in 10.0 mi South 5.8 mph - N/A   Clear
8:53 AM 24.1 °F 18.2 °F 14.0 °F 65% 30.20 in 10.0 mi Variable 4.6 mph - N/A   Clear
9:53 AM 24.1 °F - 16.0 °F 71% 30.22 in 10.0 mi Calm Calm - N/A   Clear
10:53 AM 33.1 °F - 18.0 °F 54% 30.18 in 10.0 mi Calm Calm - N/A   Clear
11:53 AM 39.9 °F 35.8 °F 19.0 °F 43% 30.14 in 10.0 mi NNW 5.8 mph - N/A   Clear
12:53 PM 45.0 °F 42.6 °F 18.0 °F 34% 30.10 in 10.0 mi North 4.6 mph - N/A   Clear
1:53 PM 46.0 °F - 16.0 °F 30% 30.09 in 10.0 mi Calm Calm - N/A   Clear
2:53 PM 45.0 °F 41.2 °F 10.9 °F 25% 30.10 in 10.0 mi NNE 6.9 mph - N/A   Clear
3:53 PM 45.0 °F 40.6 °F 14.0 °F 29% 30.12 in 10.0 mi NNE 8.1 mph - N/A   Clear
4:53 PM 44.1 °F 41.5 °F 14.0 °F 30% 30.14 in 10.0 mi NW 4.6 mph - N/A   Clear
5:53 PM 41.0 °F 38.0 °F 14.0 °F 33% 30.15 in 10.0 mi WNW 4.6 mph - N/A   Clear
6:53 PM 43.0 °F - 12.9 °F 30% 30.17 in 10.0 mi Calm Calm - N/A   Clear
7:53 PM 36.0 °F 30.3 °F 18.0 °F 48% 30.17 in 10.0 mi NE 6.9 mph - N/A   Partly Cloudy
8:53 PM 39.0 °F 32.3 °F 21.9 °F 50% 30.17 in 10.0 mi NW 10.4 mph - N/A   Scattered Clouds
9:53 PM 37.9 °F 33.5 °F 23.0 °F 55% 30.21 in 10.0 mi West 5.8 mph - N/A   Overcast
10:53 PM 34.0 °F 31.0 °F 21.9 °F 61% 30.19 in 10.0 mi NW 3.5 mph - N/A   Partly Cloudy
11:53 PM 35.1 °F - 21.9 °F 59% 30.20 in 10.0 mi Calm Calm - N/A   Clear